• In Czech Republic
  • List of Countries
  • For 7 days
  • Water Temperature
  • Satellite Maps
  • Weather Map
  • Weather Widgets
  • user-avatar
    Login

    Hourly Weather Nallıhan

    Today, 15 December, Friday

    Time Temperature Precipitation Wind Pressure Humidity
    00:00 +7°C° 0 mm 1 mps 704 mmHg 73%
    01:00 +7°C° 0 mm 1 mps 704 mmHg 74%
    02:00 +7°C° 0 mm 1 mps 704 mmHg 78%
    03:00 +6°C° 0 mm 1 mps 704 mmHg 79%
    04:00 +6°C° 0 mm 1 mps 704 mmHg 79%
    05:00 +6°C° 0 mm 1 mps 704 mmHg 80%
    06:00 +6°C° 0 mm 1 mps 705 mmHg 79%
    07:00 +7°C° 0 mm 1 mps 705 mmHg 78%
    08:00 +7°C° 0 mm 1 mps 705 mmHg 78%
    09:00 +9°C° 0 mm 1 mps 705 mmHg 72%
    10:00 +11°C° 0 mm 1 mps 705 mmHg 66%
    11:00 +12°C° 0 mm 2 mps 706 mmHg 60%
    12:00 +13°C° 0 mm 2 mps 705 mmHg 57%
    13:00 +14°C° 0 mm 2 mps 705 mmHg 55%
    14:00 +14°C° 0 mm 2 mps 705 mmHg 53%
    15:00 +13°C° 0 mm 2 mps 705 mmHg 57%
    16:00 +12°C° 0 mm 2 mps 705 mmHg 62%
    17:00 +9°C° 0 mm 2 mps 705 mmHg 66%
    18:00 +9°C° 0 mm 2 mps 705 mmHg 66%
    19:00 +9°C° 0 mm 2 mps 705 mmHg 66%
    20:00 +8°C° 0 mm 2 mps 705 mmHg 67%
    21:00 +8°C° 0 mm 2 mps 705 mmHg 66%
    22:00 +8°C° 0 mm 2 mps 705 mmHg 66%
    23:00 +8°C° 0 mm 2 mps 705 mmHg 66%

    Tomorrow, 16 December, Saturday

    Time Temperature Precipitation Wind Pressure Humidity
    00:00 +7°C° 0 mm 2 mps 705 mmHg 66%
    01:00 +7°C° 0 mm 2 mps 705 mmHg 67%
    02:00 +7°C° 0 mm 2 mps 705 mmHg 67%
    03:00 +7°C° 0 mm 2 mps 705 mmHg 68%
    04:00 +7°C° 0 mm 2 mps 705 mmHg 69%
    05:00 +6°C° 0 mm 2 mps 705 mmHg 71%
    06:00 +6°C° 0 mm 2 mps 705 mmHg 72%
    07:00 +7°C° 0 mm 2 mps 705 mmHg 72%
    08:00 +7°C° 0 mm 2 mps 705 mmHg 73%
    09:00 +8°C° 0 mm 2 mps 705 mmHg 69%
    10:00 +10°C° 0 mm 2 mps 706 mmHg 66%
    11:00 +12°C° 0 mm 3 mps 706 mmHg 62%
    12:00 +12°C° 0 mm 3 mps 705 mmHg 61%
    13:00 +13°C° 0 mm 3 mps 705 mmHg 60%
    14:00 +13°C° 0 mm 3 mps 704 mmHg 60%
    15:00 +12°C° 0 mm 3 mps 704 mmHg 65%
    16:00 +12°C° 0 mm 2 mps 704 mmHg 69%
    17:00 +10°C° 0 mm 2 mps 704 mmHg 74%
    18:00 +10°C° 0 mm 2 mps 704 mmHg 76%
    19:00 +10°C° 0 mm 2 mps 704 mmHg 77%
    20:00 +9°C° 0 mm 2 mps 705 mmHg 78%
    21:00 +9°C° 0 mm 2 mps 705 mmHg 78%
    22:00 +9°C° 0 mm 2 mps 705 mmHg 78%
    23:00 +9°C° 0 mm 2 mps 704 mmHg 79%

    Day after tomorrow, 17 December, Sunday

    Time Temperature Precipitation Wind Pressure Humidity
    00:00 +9°C° 0.2 mm 2 mps 704 mmHg 79%
    01:00 +9°C° 0.2 mm 2 mps 704 mmHg 80%
    02:00 +9°C° 0.2 mm 2 mps 704 mmHg 81%
    03:00 +9°C° 0.4 mm 2 mps 704 mmHg 83%
    04:00 +9°C° 0.4 mm 3 mps 704 mmHg 84%
    05:00 +9°C° 0.4 mm 3 mps 703 mmHg 85%
    06:00 +9°C° 0.1 mm 3 mps 703 mmHg 86%
    07:00 +9°C° 0.1 mm 2 mps 704 mmHg 86%
    08:00 +9°C° 0.1 mm 2 mps 704 mmHg 86%
    09:00 +10°C° 0 mm 3 mps 704 mmHg 81%
    10:00 +11°C° 0 mm 3 mps 704 mmHg 76%
    11:00 +12°C° 0 mm 3 mps 704 mmHg 71%
    12:00 +13°C° 0 mm 4 mps 703 mmHg 68%
    13:00 +13°C° 0 mm 4 mps 703 mmHg 65%
    14:00 +14°C° 0 mm 5 mps 702 mmHg 62%
    15:00 +13°C° 0 mm 4 mps 702 mmHg 64%
    16:00 +13°C° 0 mm 4 mps 702 mmHg 66%
    17:00 +12°C° 0 mm 4 mps 702 mmHg 68%
    18:00 +12°C° 0.1 mm 4 mps 702 mmHg 69%
    19:00 +11°C° 0.1 mm 4 mps 702 mmHg 70%
    20:00 +11°C° 0.1 mm 4 mps 702 mmHg 71%
    21:00 +11°C° 0.4 mm 3 mps 703 mmHg 74%
    22:00 +10°C° 0.4 mm 3 mps 703 mmHg 77%
    23:00 +10°C° 0.4 mm 3 mps 704 mmHg 80%

    18 December, Monday

    Time Temperature Precipitation Wind Pressure Humidity
    00:00 +10°C° 0.8 mm 2 mps 704 mmHg 84%
    01:00 +9°C° 0.8 mm 2 mps 704 mmHg 87%
    02:00 +9°C° 0.8 mm 2 mps 705 mmHg 90%
    03:00 +10°C° 0.6 mm 1 mps 705 mmHg 91%
    04:00 +10°C° 0.6 mm 1 mps 705 mmHg 93%
    05:00 +10°C° 0.6 mm 1 mps 705 mmHg 94%
    06:00 +9°C° 0.4 mm 1 mps 705 mmHg 94%
    07:00 +9°C° 0.4 mm 1 mps 706 mmHg 94%
    08:00 +9°C° 0.4 mm 1 mps 706 mmHg 93%
    09:00 +9°C° 0.2 mm 1 mps 706 mmHg 88%
    10:00 +10°C° 0.2 mm 1 mps 706 mmHg 83%
    11:00 +10°C° 0.2 mm 1 mps 706 mmHg 77%
    12:00 +10°C° 0.2 mm 1 mps 706 mmHg 76%
    13:00 +10°C° 0.2 mm 1 mps 705 mmHg 75%
    14:00 +10°C° 0.2 mm 1 mps 705 mmHg 74%
    15:00 +9°C° 0.1 mm 1 mps 705 mmHg 77%
    16:00 +9°C° 0.1 mm 1 mps 705 mmHg 81%
    17:00 +8°C° 0.1 mm 1 mps 705 mmHg 84%
    18:00 +8°C° 0.1 mm 1 mps 705 mmHg 85%
    19:00 +8°C° 0.1 mm 1 mps 705 mmHg 87%
    20:00 +7°C° 0.1 mm 1 mps 705 mmHg 89%
    21:00 +7°C° 0.1 mm 1 mps 705 mmHg 89%
    22:00 +7°C° 0.1 mm 1 mps 705 mmHg 90%
    23:00 +7°C° 0.1 mm 1 mps 705 mmHg 91%

    19 December, Tuesday

    Time Temperature Precipitation Wind Pressure Humidity
    00:00 +7°C° 0.4 mm 1 mps 705 mmHg 91%
    01:00 +6°C° 0.4 mm 2 mps 705 mmHg 91%
    02:00 +6°C° 0.4 mm 2 mps 705 mmHg 91%
    03:00 +4°C° 0.5 mm 3 mps 706 mmHg 91%
    04:00 +4°C° 0.5 mm 3 mps 706 mmHg 91%
    05:00 +3°C° 0.5 mm 3 mps 707 mmHg 91%
    06:00 +3°C° 0.1 mm 3 mps 708 mmHg 90%
    07:00 +3°C° 0.1 mm 3 mps 708 mmHg 90%
    08:00 +4°C° 0.1 mm 2 mps 709 mmHg 90%
    09:00 +4°C° 0 mm 2 mps 709 mmHg 84%
    10:00 +5°C° 0 mm 2 mps 710 mmHg 78%
    11:00 +5°C° 0 mm 2 mps 710 mmHg 73%
    12:00 +6°C° 0 mm 2 mps 710 mmHg 70%
    13:00 +6°C° 0 mm 2 mps 710 mmHg 68%
    14:00 +6°C° 0 mm 2 mps 710 mmHg 65%
    15:00 +5°C° 0 mm 2 mps 710 mmHg 69%
    16:00 +5°C° 0 mm 2 mps 710 mmHg 73%
    17:00 +5°C° 0 mm 1 mps 710 mmHg 76%
    18:00 +4°C° 0 mm 1 mps 710 mmHg 78%
    19:00 +4°C° 0 mm 1 mps 711 mmHg 81%
    20:00 +3°C° 0 mm 1 mps 711 mmHg 83%
    21:00 +3°C° 0 mm 1 mps 711 mmHg 83%
    22:00 +3°C° 0 mm 1 mps 710 mmHg 83%
    23:00 +3°C° 0 mm 1 mps 710 mmHg 84%

    20 December, Wednesday

    Time Temperature Precipitation Wind Pressure Humidity
    00:00 +2°C° 0 mm 1 mps 710 mmHg 83%
    01:00 +2°C° 0 mm 1 mps 710 mmHg 82%
    02:00 +2°C° 0 mm 1 mps 710 mmHg 81%
    03:00 +2°C° 0 mm 1 mps 710 mmHg 80%
    04:00 +2°C° 0 mm 1 mps 710 mmHg 79%
    05:00 +2°C° 0 mm 1 mps 710 mmHg 78%
    06:00 +2°C° 0 mm 1 mps 710 mmHg 78%
    07:00 +3°C° 0 mm 1 mps 710 mmHg 77%
    08:00 +3°C° 0 mm 1 mps 710 mmHg 76%
    09:00 +4°C° 0 mm 1 mps 710 mmHg 72%
    10:00 +5°C° 0 mm 1 mps 710 mmHg 68%
    11:00 +7°C° 0 mm 1 mps 710 mmHg 64%
    12:00 +7°C° 0 mm 1 mps 710 mmHg 63%
    13:00 +7°C° 0 mm 1 mps 709 mmHg 63%
    14:00 +8°C° 0 mm 1 mps 709 mmHg 62%
    15:00 +7°C° 0 mm 1 mps 709 mmHg 68%
    16:00 +6°C° 0 mm 1 mps 709 mmHg 73%
    17:00 +5°C° 0 mm 1 mps 710 mmHg 78%
    18:00 +5°C° 0 mm 1 mps 710 mmHg 80%
    19:00 +4°C° 0 mm 1 mps 710 mmHg 82%
    20:00 +4°C° 0 mm 1 mps 710 mmHg 84%
    21:00 +4°C° 0 mm 1 mps 711 mmHg 85%
    22:00 +4°C° 0 mm 1 mps 711 mmHg 86%
    23:00 +3°C° 0 mm 1 mps 711 mmHg 87%
    Show more